• în Republica Moldova
  • Lista ţărilor
  • Pe 7 zile
  • Temperatura apei
  • Hartă satelitară
  • Meteo pe hartă
  • Widget-uri
  • user-avatar
    Intrare

    Meteo pe oră la Mitroshino

    Astăzi, 23 Octombrie, Marţi

    Timp Temperatura Precipitaţii Vânt Presiune Umiditate
    00:00 +4°C° 0 mm 3 m/s 739 mmHg 90%
    01:00 +4°C° 0 mm 3 m/s 739 mmHg 91%
    02:00 +3°C° 0 mm 3 m/s 739 mmHg 92%
    03:00 +2°C° 0 mm 3 m/s 738 mmHg 93%
    04:00 +2°C° 0 mm 3 m/s 738 mmHg 94%
    05:00 +2°C° 0 mm 2 m/s 738 mmHg 95%
    06:00 +2°C° 0 mm 2 m/s 737 mmHg 94%
    07:00 +2°C° 0 mm 2 m/s 737 mmHg 93%
    08:00 +3°C° 0 mm 2 m/s 736 mmHg 92%
    09:00 +3°C° 0 mm 3 m/s 735 mmHg 86%
    10:00 +4°C° 0 mm 3 m/s 735 mmHg 81%
    11:00 +5°C° 0 mm 4 m/s 734 mmHg 75%
    12:00 +5°C° 0 mm 4 m/s 733 mmHg 75%
    13:00 +5°C° 0 mm 4 m/s 731 mmHg 74%
    14:00 +6°C° 0 mm 5 m/s 730 mmHg 73%
    15:00 +5°C° 0 mm 5 m/s 729 mmHg 74%
    16:00 +4°C° 0 mm 4 m/s 728 mmHg 76%
    17:00 +4°C° 0 mm 4 m/s 727 mmHg 77%
    18:00 +4°C° 0 mm 4 m/s 725 mmHg 78%
    19:00 +3°C° 0 mm 5 m/s 724 mmHg 78%
    20:00 +3°C° 0 mm 5 m/s 723 mmHg 79%
    21:00 +2°C° 0.3 mm 5 m/s 722 mmHg 80%
    22:00 +2°C° 0.3 mm 5 m/s 721 mmHg 82%
    23:00 +2°C° 0.3 mm 5 m/s 720 mmHg 83%

    Mâine, 24 Octombrie, Miercuri

    Timp Temperatura Precipitaţii Vânt Presiune Umiditate
    00:00 +3°C° 0.8 mm 4 m/s 719 mmHg 85%
    01:00 +3°C° 0.8 mm 4 m/s 718 mmHg 87%
    02:00 +3°C° 0.8 mm 3 m/s 717 mmHg 89%
    03:00 +3°C° 0.4 mm 3 m/s 717 mmHg 90%
    04:00 +3°C° 0.4 mm 3 m/s 716 mmHg 91%
    05:00 +5°C° 0.4 mm 2 m/s 716 mmHg 93%
    06:00 +5°C° 0.3 mm 2 m/s 716 mmHg 92%
    07:00 +5°C° 0.3 mm 2 m/s 716 mmHg 92%
    08:00 +5°C° 0.3 mm 2 m/s 716 mmHg 92%
    09:00 +5°C° 0.1 mm 2 m/s 717 mmHg 90%
    10:00 +5°C° 0.1 mm 2 m/s 717 mmHg 88%
    11:00 +6°C° 0.1 mm 2 m/s 718 mmHg 86%
    12:00 +6°C° 0.2 mm 2 m/s 718 mmHg 85%
    13:00 +6°C° 0.2 mm 2 m/s 719 mmHg 85%
    14:00 +6°C° 0.2 mm 2 m/s 719 mmHg 85%
    15:00 +6°C° 0.1 mm 2 m/s 720 mmHg 86%
    16:00 +4°C° 0.1 mm 3 m/s 720 mmHg 87%
    17:00 +4°C° 0.1 mm 3 m/s 721 mmHg 89%
    18:00 +4°C° 0.1 mm 3 m/s 722 mmHg 88%
    19:00 +3°C° 0.1 mm 4 m/s 722 mmHg 87%
    20:00 +3°C° 0.1 mm 4 m/s 723 mmHg 86%
    21:00 +3°C° 0.1 mm 4 m/s 724 mmHg 86%
    22:00 +3°C° 0.1 mm 4 m/s 724 mmHg 86%
    23:00 +3°C° 0.1 mm 4 m/s 725 mmHg 86%

    Poimâine, 25 Octombrie, Joi

    Timp Temperatura Precipitaţii Vânt Presiune Umiditate
    00:00 +1°C° 0.1 mm 4 m/s 725 mmHg 87%
    01:00 +1°C° 0.1 mm 4 m/s 726 mmHg 87%
    02:00 0°C° 0.1 mm 4 m/s 726 mmHg 88%
    03:00 0°C° 0 mm 4 m/s 726 mmHg 89%
    04:00 0°C° 0 mm 3 m/s 726 mmHg 90%
    05:00 0°C° 0 mm 3 m/s 726 mmHg 91%
    06:00 0°C° 0 mm 3 m/s 726 mmHg 91%
    07:00 0°C° 0 mm 3 m/s 726 mmHg 91%
    08:00 0°C° 0 mm 3 m/s 726 mmHg 92%
    09:00 +1°C° 0 mm 3 m/s 726 mmHg 88%
    10:00 +2°C° 0 mm 3 m/s 726 mmHg 85%
    11:00 +3°C° 0 mm 3 m/s 726 mmHg 81%
    12:00 +3°C° 0 mm 3 m/s 726 mmHg 80%
    13:00 +3°C° 0 mm 3 m/s 726 mmHg 78%
    14:00 +4°C° 0 mm 3 m/s 726 mmHg 76%
    15:00 +3°C° 0 mm 3 m/s 726 mmHg 79%
    16:00 +2°C° 0 mm 3 m/s 726 mmHg 82%
    17:00 +3°C° 0 mm 2 m/s 726 mmHg 85%
    18:00 +2°C° 0 mm 2 m/s 726 mmHg 87%
    19:00 +2°C° 0 mm 2 m/s 726 mmHg 89%
    20:00 +1°C° 0 mm 2 m/s 726 mmHg 91%
    21:00 +1°C° 0 mm 2 m/s 727 mmHg 92%
    22:00 +1°C° 0 mm 2 m/s 727 mmHg 93%
    23:00 -1°C° 0 mm 2 m/s 727 mmHg 94%

    26 Octombrie, Vineri

    Timp Temperatura Precipitaţii Vânt Presiune Umiditate
    00:00 -1°C° 0 mm 2 m/s 728 mmHg 94%
    01:00 -1°C° 0 mm 2 m/s 728 mmHg 95%
    02:00 -1°C° 0 mm 2 m/s 728 mmHg 95%
    03:00 -1°C° 0 mm 2 m/s 728 mmHg 95%
    04:00 -1°C° 0 mm 3 m/s 729 mmHg 95%
    05:00 -1°C° 0 mm 3 m/s 729 mmHg 95%
    06:00 -1°C° 0 mm 3 m/s 729 mmHg 94%
    07:00 -1°C° 0 mm 3 m/s 729 mmHg 93%
    08:00 -1°C° 0 mm 3 m/s 730 mmHg 92%
    09:00 +1°C° 0 mm 3 m/s 730 mmHg 87%
    10:00 +1°C° 0 mm 4 m/s 730 mmHg 83%
    11:00 +3°C° 0 mm 4 m/s 731 mmHg 78%
    12:00 +3°C° 0 mm 4 m/s 731 mmHg 76%
    13:00 +3°C° 0 mm 4 m/s 731 mmHg 74%
    14:00 +4°C° 0 mm 4 m/s 732 mmHg 72%
    15:00 +3°C° 0 mm 4 m/s 732 mmHg 75%
    16:00 +2°C° 0 mm 3 m/s 732 mmHg 79%
    17:00 +3°C° 0 mm 2 m/s 733 mmHg 83%
    18:00 +2°C° 0 mm 2 m/s 733 mmHg 85%
    19:00 +1°C° 0 mm 2 m/s 733 mmHg 88%
    20:00 +1°C° 0 mm 2 m/s 734 mmHg 91%
    21:00 +1°C° 0 mm 2 m/s 734 mmHg 92%
    22:00 -1°C° 0 mm 2 m/s 735 mmHg 94%
    23:00 -1°C° 0 mm 2 m/s 735 mmHg 95%

    27 Octombrie, Sâmbătă

    Timp Temperatura Precipitaţii Vânt Presiune Umiditate
    00:00 -1°C° 0 mm 2 m/s 735 mmHg 95%
    01:00 +1°C° 0 mm 1 m/s 735 mmHg 95%
    02:00 0°C° 0 mm 1 m/s 735 mmHg 95%
    03:00 -1°C° 0 mm 2 m/s 735 mmHg 95%
    04:00 -1°C° 0 mm 2 m/s 735 mmHg 95%
    05:00 -1°C° 0 mm 2 m/s 735 mmHg 94%
    06:00 0°C° 0.2 mm 3 m/s 735 mmHg 92%
    07:00 +1°C° 0.2 mm 3 m/s 734 mmHg 90%
    08:00 0°C° 0.2 mm 4 m/s 734 mmHg 88%
    09:00 +1°C° 0.9 mm 4 m/s 733 mmHg 87%
    10:00 +2°C° 0.9 mm 5 m/s 733 mmHg 86%
    11:00 +2°C° 0.9 mm 5 m/s 732 mmHg 84%
    12:00 +3°C° 0.6 mm 5 m/s 732 mmHg 85%
    13:00 +3°C° 0.6 mm 5 m/s 731 mmHg 85%
    14:00 +5°C° 0.6 mm 5 m/s 731 mmHg 86%
    15:00 +5°C° 0.2 mm 5 m/s 730 mmHg 87%
    16:00 +5°C° 0.2 mm 5 m/s 730 mmHg 87%
    17:00 +6°C° 0.2 mm 5 m/s 730 mmHg 88%
    18:00 +5°C° 0.1 mm 4 m/s 731 mmHg 89%
    19:00 +5°C° 0.1 mm 4 m/s 731 mmHg 90%
    20:00 +5°C° 0.1 mm 3 m/s 731 mmHg 91%
    21:00 +5°C° 0 mm 3 m/s 732 mmHg 92%
    22:00 +4°C° 0 mm 3 m/s 732 mmHg 93%
    23:00 +5°C° 0 mm 2 m/s 732 mmHg 94%

    28 Octombrie, Duminică

    Timp Temperatura Precipitaţii Vânt Presiune Umiditate
    00:00 +4°C° 0 mm 2 m/s 732 mmHg 94%
    01:00 +4°C° 0 mm 2 m/s 733 mmHg 95%
    02:00 +4°C° 0 mm 2 m/s 733 mmHg 95%
    03:00 +3°C° 0 mm 2 m/s 733 mmHg 95%
    04:00 +3°C° 0 mm 2 m/s 733 mmHg 95%
    05:00 +2°C° 0 mm 2 m/s 733 mmHg 95%
    06:00 +4°C° 0 mm 1 m/s 733 mmHg 94%
    07:00 +4°C° 0 mm 1 m/s 733 mmHg 94%
    08:00 +4°C° 0 mm 1 m/s 733 mmHg 93%
    09:00 +5°C° 0 mm 1 m/s 733 mmHg 90%
    10:00 +5°C° 0 mm 1 m/s 733 mmHg 87%
    11:00 +6°C° 0 mm 1 m/s 733 mmHg 84%
    12:00 +6°C° 0.1 mm 1 m/s 733 mmHg 85%
    13:00 +6°C° 0.1 mm 1 m/s 733 mmHg 87%
    14:00 +6°C° 0.1 mm 1 m/s 732 mmHg 88%
    15:00 +6°C° 0.5 mm 1 m/s 732 mmHg 90%
    16:00 +6°C° 0.5 mm 1 m/s 732 mmHg 91%
    17:00 +5°C° 0.5 mm 1 m/s 732 mmHg 93%
    18:00 +5°C° 0.8 mm 1 m/s 732 mmHg 93%
    19:00 +4°C° 0.8 mm 2 m/s 731 mmHg 92%
    20:00 +4°C° 0.8 mm 2 m/s 731 mmHg 92%
    21:00 +4°C° 0.7 mm 2 m/s 731 mmHg 91%
    22:00 +4°C° 0.7 mm 2 m/s 732 mmHg 91%
    23:00 +3°C° 0.7 mm 3 m/s 732 mmHg 90%
    Arată mai mult